カタログに戻る

COSMOS 1275 DEB

運用中PO
NORAD 12668·DEBRIS·🇷🇺 Russia

打ち上げ Jun 4, 1981 から Plesetsk Cosmodrome

Loading…

次のパス (今後24時間)

TLE

最新Source: Space-Track

元期: Sep 14, 2026, 14:53 UTC

1 12668U 81053Y   26257.62049167  .00000311  00000-0  18618-3 0  9999
2 12668  83.1073  15.8840 0051231 307.7823  63.9141 14.03584143298832

AllMySatでCOSMOS 1275 DEBをリアルタイム追跡

Download on the App Store